Starlink 11453

operational
NORAD ID: 62411 Int'l Des: 2024-249 Owner: SPXS Country: US Constellation: starlink
LEOCIRCULAR

Starlink 11453について

説明を読み込み中...

リアルタイム位置

3D地球を読み込み中...

次回通過

高度履歴

Altitude vs Time

uPlot chart will show altitude changes over time

軌道要素

1 62411U 24249C 25354.09847808 .00171682 00000-0 13065-2 0 9990
2 62411 42.9995 287.3486 0001999 226.6958 133.3743 15.70976805 56966
Epoch: Dec 20, 2025 • Age: 10 hours

現在のステータス

高度 355.9 km
速度 7.70 km/s
衛星直下点 27.31°N, 160.62°E
打ち上げ日 Dec 23, 2024
運用期間 0.9 years
タイプ internet

技術仕様

分類 Payload
質量 960.00 kg
乾燥質量 910.00 kg
総質量 960.00 kg
長さ 0.30 m
直径 4.10 m
スパン 29.00 m
形状 Box + pan
製造者 SPXS
バスタイプ Starlink V2MD
フェーズステータス In Orbit
所有者/国 SPXS/US

大規模コンステレーション

Loading constellations...